Date,TemperatureHighF,TemperatureAvgF,TemperatureLowF,DewpointHighF,DewpointAvgF,DewpointLowF,HumidityHigh,HumidityAvg,HumidityLow,PressureMaxIn,PressureMinIn,WindSpeedMaxMPH,WindSpeedAvgMPH,GustSpeedMaxMPH,PrecipitationSumIn
2013-8-1,76.0,57.5,48.5,53.1,44.8,37.7,82,64,32,29.95,29.77,17,2,20,0.00
2013-8-2,77.2,57.4,36.6,46.9,36.9,25.2,81,50,22,30.00,29.86,14,1,20,0.00
2013-8-3,84.1,60.3,35.5,44.7,35.0,28.2,88,46,17,30.00,29.80,12,1,20,0.00
2013-8-4,91.0,65.9,41.2,47.7,38.7,27.1,70,41,16,29.92,29.73,14,1,20,0.00
2013-8-5,88.6,66.9,45.1,49.2,40.4,34.2,76,42,20,29.85,29.73,10,0,20,0.00
2013-8-6,89.5,68.2,44.8,48.2,39.6,33.5,78,40,16,29.84,29.70,14,2,20,0.00
2013-8-7,81.8,66.6,47.1,44.3,38.7,32.7,59,38,21,29.84,29.74,30,3,32,0.00
2013-8-8,87.4,66.7,44.5,49.8,40.2,33.3,71,41,19,29.88,29.69,11,1,32,0.00
2013-8-9,85.5,65.3,47.4,55.4,45.0,38.8,74,50,25,29.80,29.61,26,2,32,0.00
2013-8-10,79.2,57.5,40.8,59.0,42.0,29.7,78,58,31,29.90,29.77,10,1,32,0.00
2013-8-11,78.6,60.6,43.8,45.5,41.1,33.9,83,52,25,29.96,29.77,19,2,32,0.00
2013-8-12,83.6,62.6,41.6,46.8,40.0,28.8,76,47,22,29.90,29.77,18,1,32,0.00
2013-8-13,87.0,65.0,44.3,44.9,39.0,30.3,76,42,19,29.93,29.76,13,1,32,0.00
2013-8-14,87.0,65.6,44.6,46.4,40.5,33.7,74,44,20,29.84,29.71,19,2,32,0.00
2013-8-15,55.1,51.2,48.8,39.0,37.7,36.3,67,60,53,29.78,29.76,5,0,32,0.00
2013-8-17,87.8,73.5,48.5,52.0,47.9,38.5,77,42,26,29.91,29.69,16,1,18,0.00
2013-8-18,91.2,64.9,42.3,52.0,41.3,33.6,82,49,17,29.98,29.83,10,1,18,0.00
2013-8-19,93.6,67.7,43.5,48.6,42.6,35.0,82,46,19,29.94,29.79,13,1,18,0.00
2013-8-20,87.2,63.1,40.3,45.8,33.5,20.0,80,40,13,29.96,29.79,10,0,18,0.00
2013-8-21,85.5,65.2,42.9,41.9,32.1,19.7,53,31,18,29.90,29.76,8,0,18,0.00
2013-8-22,78.5,61.8,50.5,52.0,42.0,27.7,73,50,29,29.86,29.72,32,3,32,0.00
2013-8-23,79.0,64.0,50.5,47.5,43.6,39.1,72,50,27,29.81,29.63,21,4,32,0.00
2013-8-24,79.2,61.1,42.6,49.1,42.6,34.3,79,54,27,29.72,29.60,16,1,32,0.00
2013-8-25,73.7,56.4,44.3,53.9,44.8,39.2,84,66,39,29.84,29.64,22,2,32,0.00
2013-8-26,73.3,58.2,43.6,50.6,43.6,38.5,84,61,30,29.86,29.75,19,3,25,0.00
2013-8-27,82.0,60.8,40.8,48.1,40.5,34.0,82,54,19,29.88,29.63,15,2,25,0.00
2013-8-28,82.6,64.9,45.2,49.1,42.3,36.4,82,49,21,29.75,29.65,22,2,25,0.00
2013-8-29,80.7,68.2,51.0,48.8,44.4,39.3,73,45,27,29.89,29.70,20,5,29,0.00
2013-8-30,81.4,65.2,48.9,49.8,45.6,41.0,79,52,24,30.01,29.81,13,2,29,0.00
2013-8-31,88.0,64.8,41.3,49.6,42.8,35.3,82,50,19,29.93,29.69,14,1,29,0.00